Regional Weather Roundup
Issued by NWS Raleigh/Durham, NC

Home | Current Version | Previous Version | Text Only | Print | Product List | Glossary On
Versions: 1 2 3 4 5 6 7 8 9 10 11 12 13 14 15 16 17 18 19 20 21 22 23 24 25 26 27 28 29 30 31 32 33 34 35 36 37 38 39 40 41 42 43 44 45 46 47 48 49
000
ASUS42 KRAH 211110
RWRRAH
NORTH CAROLINA WEATHER ROUNDUP
NATIONAL WEATHER SERVICE RALEIGH NC
600 AM EST SUN DEC 21 2014

NOTE: "FAIR" INDICATES FEW OR NO CLOUDS BELOW 12,000 FEET WITH NO
SIGNIFICANT WEATHER AND/OR OBSTRUCTIONS TO VISIBILITY.

NCZ001-053-055-056-065-067-211200-
WESTERN NORTH CAROLINA

CITY           SKY/WX    TMP DP  RH WIND       PRES   REMARKS
ASHEVILLE      CLOUDY    39  37  92 CALM      30.19S
JEFFERSON      CLOUDY    34  32  95 CALM      30.16R
MORGANTON      CLOUDY    40  36  87 CALM      30.27R
HICKORY        CLOUDY    40  36  86 CALM      30.22R FOG
RUTHERFORDTON  CLOUDY    40  40  99 CALM      30.24R FOG
MOUNT AIRY     CLOUDY    38  34  85 CALM      30.24R
BOONE          CLOUDY    37  35  94 W3        30.16R
$$

NCZ021-022-025-041-071-084-088-211200-
CENTRAL NORTH CAROLINA

CITY           SKY/WX    TMP DP  RH WIND       PRES   REMARKS
CHARLOTTE      CLOUDY    42  34  73 N3        30.24R
GREENSBORO     CLOUDY    39  35  86 CALM      30.24R
WINSTON-SALEM  CLOUDY    38  33  82 CALM      30.25R
RALEIGH-DURHAM CLOUDY    38  34  85 CALM      30.27R FOG
FORT BRAGG     NOT AVBL
FAYETTEVILLE   CLOUDY    38  36  92 NE9       30.26S WCI  31
BURLINGTON     CLOUDY    37  34  89 CALM      30.25R
LAURINBURG     MOCLDY    37  34  89 E3        30.26R
$$

NCZ011-015-027-028-043-044-047-080-103-211200-
NORTHEASTERN NORTH CAROLINA

CITY           SKY/WX    TMP DP  RH WIND       PRES   REMARKS
ROCKY MT-WILSO CLEAR     31  29  92 NE3       30.29R
GREENVILLE     CLEAR     32  30  93 CALM      30.29R
WASHINGTON     CLEAR     32  30  93 CALM      30.29R
ELIZABETH CITY MOCLDY    38  30  73 N8        30.30R WCI  32
MANTEO         CLEAR     39  34  81 N6        30.28R WCI  35
CAPE HATTERAS  CLEAR     43  37  79 N8G17     30.25R
$$

NCZ078-087-090-091-093-098-101-211200-
SOUTHEASTERN NORTH CAROLINA

CITY           SKY/WX    TMP DP  RH WIND       PRES   REMARKS
LUMBERTON      CLOUDY    39  35  86 NE7       30.26R WCI  34
GOLDSBORO      CLEAR     32  31  98 CALM      30.27R
KENANSVILLE    CLEAR     32  32 100 CALM      30.28S
NEW BERN       PTCLDY    36  32  85 N5        30.28R WCI  32
CHERRY POINT   MOCLDY    38  33  82 NE7       30.27R WCI  33
BEAUFORT       CLOUDY    40  37  89 NE8       30.25R WCI  34
JACKSONVILLE   CLOUDY    36  34  92 N7        30.25S WCI  30
WILMINGTON     LGT RAIN  38  34  85 NE9       30.24S WCI  31
$$



USA.gov is the U.S. government's official web portal to all federal, state and local government web resources and services.